Time,TemperatureF,DewpointF,PressureIn,WindDirection,WindDirectionDegrees,WindSpeedMPH,WindSpeedGustMPH,Humidity,HourlyPrecipIn,Conditions,Clouds,dailyrainin,SolarRadiationWatts/m^2,SoftwareType,DateUTC
2013-11-13 00:00:00,35.6,28.8,30.50,North,5,2.0,2.0,76,0.00,,,0.00,0,Wunderground v.1.15,2013-11-13 06:00:00,
2013-11-13 00:06:00,35.5,28.7,30.50,North,358,2.0,4.0,76,0.00,,,0.00,0,Wunderground v.1.15,2013-11-13 06:06:00,
2013-11-13 00:11:00,35.3,28.5,30.50,North,358,2.0,2.0,76,0.00,,,0.00,0,Wunderground v.1.15,2013-11-13 06:11:00,
2013-11-13 00:16:00,35.3,28.5,30.50,NNE,32,1.0,2.0,76,0.00,,,0.00,0,Wunderground v.1.15,2013-11-13 06:16:00,
2013-11-13 00:21:00,35.2,28.1,30.49,NNE,15,1.0,1.0,75,0.00,,,0.00,0,Wunderground v.1.15,2013-11-13 06:21:00,
2013-11-13 00:27:00,35.2,28.1,30.49,NNE,29,2.0,3.0,75,0.00,,,0.00,0,Wunderground v.1.15,2013-11-13 06:27:00,
2013-11-13 00:32:00,35.1,28.0,30.49,NNE,21,2.0,2.0,75,0.00,,,0.00,0,Wunderground v.1.15,2013-11-13 06:32:00,
2013-11-13 00:38:00,35.0,27.9,30.49,NNE,15,2.0,6.0,75,0.00,,,0.00,0,Wunderground v.1.15,2013-11-13 06:38:00,
2013-11-13 00:44:00,34.9,27.5,30.49,NE,48,2.0,7.0,74,0.00,,,0.00,0,Wunderground v.1.15,2013-11-13 06:44:00,
2013-11-13 00:49:00,34.8,27.7,30.49,NE,50,2.0,7.0,75,0.00,,,0.00,0,Wunderground v.1.15,2013-11-13 06:49:00,
2013-11-13 00:55:00,34.6,27.2,30.49,ENE,57,1.0,7.0,74,0.00,,,0.00,0,Wunderground v.1.15,2013-11-13 06:55:00,
2013-11-13 01:01:00,34.4,27.0,30.49,North,10,2.0,2.0,74,0.00,,,0.00,0,Wunderground v.1.15,2013-11-13 07:01:00,
2013-11-13 01:06:00,34.4,27.0,30.49,NE,35,2.0,2.0,74,0.00,,,0.00,0,Wunderground v.1.15,2013-11-13 07:06:00,
2013-11-13 01:11:00,34.4,27.3,30.49,North,356,1.0,1.0,75,0.00,,,0.00,0,Wunderground v.1.15,2013-11-13 07:11:00,
2013-11-13 01:16:00,34.4,27.0,30.49,North,5,1.0,4.0,74,0.00,,,0.00,0,Wunderground v.1.15,2013-11-13 07:16:00,
2013-11-13 01:21:00,34.3,27.2,30.49,NNE,23,1.0,1.0,75,0.00,,,0.00,0,Wunderground v.1.15,2013-11-13 07:21:00,
2013-11-13 01:27:00,34.2,26.8,30.49,NNW,328,1.0,3.0,74,0.00,,,0.00,0,Wunderground v.1.15,2013-11-13 07:27:00,
2013-11-13 01:32:00,34.1,26.7,30.49,North,351,2.0,2.0,74,0.00,,,0.00,0,Wunderground v.1.15,2013-11-13 07:32:00,
2013-11-13 01:37:00,34.0,26.6,30.49,NE,44,2.0,2.0,74,0.00,,,0.00,0,Wunderground v.1.15,2013-11-13 07:37:00,
2013-11-13 01:42:00,33.9,26.5,30.49,North,360,1.0,2.0,74,0.00,,,0.00,0,Wunderground v.1.15,2013-11-13 07:42:00,
2013-11-13 01:48:00,33.8,26.4,30.49,NE,39,2.0,6.0,74,0.00,,,0.00,0,Wunderground v.1.15,2013-11-13 07:48:00,
2013-11-13 01:53:00,33.7,26.3,30.49,NNE,20,2.0,4.0,74,0.00,,,0.00,0,Wunderground v.1.15,2013-11-13 07:53:00,
2013-11-13 01:58:00,33.7,26.3,30.49,NE,34,2.0,4.0,74,0.00,,,0.00,0,Wunderground v.1.15,2013-11-13 07:58:00,
2013-11-13 02:03:00,33.6,25.9,30.50,North,10,2.0,6.0,73,0.00,,,0.00,0,Wunderground v.1.15,2013-11-13 08:03:00,
2013-11-13 02:08:00,33.6,25.9,30.50,North,10,3.0,7.0,73,0.00,,,0.00,0,Wunderground v.1.15,2013-11-13 08:08:00,
2013-11-13 02:13:00,33.6,25.9,30.50,NNE,15,2.0,6.0,73,0.00,,,0.00,0,Wunderground v.1.15,2013-11-13 08:13:00,
2013-11-13 02:18:00,33.5,25.8,30.50,NNE,15,2.0,6.0,73,0.00,,,0.00,0,Wunderground v.1.15,2013-11-13 08:18:00,
2013-11-13 02:23:00,33.5,25.8,30.50,ENE,57,2.0,6.0,73,0.00,,,0.00,0,Wunderground v.1.15,2013-11-13 08:23:00,
2013-11-13 02:29:00,33.4,25.3,30.50,North,5,1.0,8.0,72,0.00,,,0.00,0,Wunderground v.1.15,2013-11-13 08:29:00,
2013-11-13 02:34:00,33.4,25.3,30.50,NE,38,2.0,6.0,72,0.00,,,0.00,0,Wunderground v.1.15,2013-11-13 08:34:00,
2013-11-13 02:39:00,33.3,25.2,30.50,NNE,29,2.0,6.0,72,0.00,,,0.00,0,Wunderground v.1.15,2013-11-13 08:39:00,
2013-11-13 02:44:00,33.3,25.2,30.50,NNE,23,3.0,10.0,72,0.00,,,0.00,0,Wunderground v.1.15,2013-11-13 08:44:00,
2013-11-13 02:50:00,33.3,25.2,30.50,NE,39,3.0,6.0,72,0.00,,,0.00,0,Wunderground v.1.15,2013-11-13 08:50:00,
2013-11-13 02:55:00,33.2,25.1,30.50,North,358,3.0,8.0,72,0.00,,,0.00,0,Wunderground v.1.15,2013-11-13 08:55:00,
2013-11-13 03:00:00,33.1,25.1,30.50,North,5,4.0,4.0,72,0.00,,,0.00,0,Wunderground v.1.15,2013-11-13 09:00:00,
2013-11-13 03:06:00,33.0,25.0,30.50,NNE,23,3.0,6.0,72,0.00,,,0.00,0,Wunderground v.1.15,2013-11-13 09:06:00,
2013-11-13 03:11:00,32.9,24.9,30.50,North,5,3.0,8.0,72,0.00,,,0.00,0,Wunderground v.1.15,2013-11-13 09:11:00,
2013-11-13 03:17:00,32.9,24.5,30.49,North,356,3.0,8.0,71,0.00,,,0.00,0,Wunderground v.1.15,2013-11-13 09:17:00,
2013-11-13 03:22:00,32.8,24.4,30.49,NE,54,3.0,6.0,71,0.00,,,0.00,0,Wunderground v.1.15,2013-11-13 09:22:00,
2013-11-13 03:27:00,32.8,24.4,30.50,NNE,24,3.0,8.0,71,0.00,,,0.00,0,Wunderground v.1.15,2013-11-13 09:27:00,
2013-11-13 03:33:00,32.7,24.3,30.49,North,350,3.0,7.0,71,0.00,,,0.00,0,Wunderground v.1.15,2013-11-13 09:33:00,
2013-11-13 03:39:00,32.6,24.2,30.49,NE,55,3.0,12.0,71,0.00,,,0.00,0,Wunderground v.1.15,2013-11-13 09:39:00,
2013-11-13 03:44:00,32.6,24.2,30.49,NNW,327,3.0,6.0,71,0.00,,,0.00,0,Wunderground v.1.15,2013-11-13 09:44:00,
2013-11-13 03:49:00,32.6,24.2,30.49,NNE,15,3.0,7.0,71,0.00,,,0.00,0,Wunderground v.1.15,2013-11-13 09:49:00,
2013-11-13 03:54:00,32.5,24.1,30.49,NE,34,2.0,6.0,71,0.00,,,0.00,0,Wunderground v.1.15,2013-11-13 09:54:00,
2013-11-13 03:59:00,32.4,24.0,30.50,North,1,2.0,6.0,71,0.00,,,0.00,0,Wunderground v.1.15,2013-11-13 09:59:00,
2013-11-13 04:04:00,32.4,24.0,30.50,ENE,58,2.0,7.0,71,0.00,,,0.00,0,Wunderground v.1.15,2013-11-13 10:04:00,
2013-11-13 04:09:00,32.3,23.9,30.50,NE,36,2.0,7.0,71,0.00,,,0.00,0,Wunderground v.1.15,2013-11-13 10:09:00,
2013-11-13 04:15:00,32.3,23.9,30.49,NE,47,3.0,10.0,71,0.00,,,0.00,0,Wunderground v.1.15,2013-11-13 10:15:00,
2013-11-13 04:20:00,32.3,23.9,30.50,NE,37,4.0,4.0,71,0.00,,,0.00,0,Wunderground v.1.15,2013-11-13 10:20:00,
2013-11-13 04:25:00,32.3,23.9,30.50,NE,44,3.0,6.0,71,0.00,,,0.00,0,Wunderground v.1.15,2013-11-13 10:25:00,
2013-11-13 04:30:00,32.2,23.8,30.50,NNE,15,3.0,10.0,71,0.00,,,0.00,0,Wunderground v.1.15,2013-11-13 10:30:00,
2013-11-13 04:35:00,32.1,23.8,30.50,NE,34,3.0,12.0,71,0.00,,,0.00,0,Wunderground v.1.15,2013-11-13 10:35:00,
2013-11-13 04:41:00,32.0,23.7,30.51,NE,53,3.0,6.0,71,0.00,,,0.00,0,Wunderground v.1.15,2013-11-13 10:41:00,
2013-11-13 04:46:00,31.9,23.6,30.51,NNE,29,3.0,6.0,71,0.00,,,0.00,0,Wunderground v.1.15,2013-11-13 10:46:00,
2013-11-13 04:51:00,31.9,23.6,30.51,North,5,2.0,6.0,71,0.00,,,0.00,0,Wunderground v.1.15,2013-11-13 10:51:00,
2013-11-13 04:57:00,31.8,23.8,30.51,NNE,33,1.0,6.0,72,0.00,,,0.00,0,Wunderground v.1.15,2013-11-13 10:57:00,
2013-11-13 05:02:00,31.7,23.7,30.52,NE,46,2.0,6.0,72,0.00,,,0.00,0,Wunderground v.1.15,2013-11-13 11:02:00,
2013-11-13 05:08:00,31.6,23.6,30.52,NNE,15,3.0,6.0,72,0.00,,,0.00,0,Wunderground v.1.15,2013-11-13 11:08:00,
2013-11-13 05:13:00,31.6,23.6,30.52,North,5,2.0,8.0,72,0.00,,,0.00,0,Wunderground v.1.15,2013-11-13 11:13:00,
2013-11-13 05:19:00,31.5,23.5,30.52,NNE,15,2.0,10.0,72,0.00,,,0.00,0,Wunderground v.1.15,2013-11-13 11:19:00,
2013-11-13 05:24:00,31.5,23.5,30.52,NE,39,2.0,9.0,72,0.00,,,0.00,0,Wunderground v.1.15,2013-11-13 11:24:00,
2013-11-13 05:29:00,31.4,23.4,30.52,NNE,21,3.0,9.0,72,0.00,,,0.00,0,Wunderground v.1.15,2013-11-13 11:29:00,
2013-11-13 05:34:00,31.4,23.4,30.53,North,354,3.0,6.0,72,0.00,,,0.00,0,Wunderground v.1.15,2013-11-13 11:34:00,
2013-11-13 05:40:00,31.3,23.3,30.52,NNW,348,2.0,2.0,72,0.00,,,0.00,0,Wunderground v.1.15,2013-11-13 11:40:00,
2013-11-13 05:45:00,31.3,23.3,30.53,NE,34,2.0,8.0,72,0.00,,,0.00,0,Wunderground v.1.15,2013-11-13 11:45:00,
2013-11-13 05:51:00,31.2,23.2,30.52,NE,48,3.0,6.0,72,0.00,,,0.00,0,Wunderground v.1.15,2013-11-13 11:51:00,
2013-11-13 05:56:00,31.1,23.1,30.52,ENE,60,2.0,6.0,72,0.00,,,0.00,0,Wunderground v.1.15,2013-11-13 11:56:00,
2013-11-13 06:01:00,31.1,23.1,30.52,North,356,2.0,6.0,72,0.00,,,0.00,0,Wunderground v.1.15,2013-11-13 12:01:00,
2013-11-13 06:06:00,31.0,23.4,30.52,NE,42,3.0,7.0,73,0.00,,,0.00,0,Wunderground v.1.15,2013-11-13 12:06:00,
2013-11-13 06:11:00,31.0,23.4,30.52,NNE,15,3.0,6.0,73,0.00,,,0.00,0,Wunderground v.1.15,2013-11-13 12:11:00,
2013-11-13 06:17:00,30.9,23.3,30.52,North,5,3.0,7.0,73,0.00,,,0.00,0,Wunderground v.1.15,2013-11-13 12:17:00,
2013-11-13 06:22:00,30.9,23.3,30.53,ENE,63,3.0,6.0,73,0.00,,,0.00,0,Wunderground v.1.15,2013-11-13 12:22:00,
2013-11-13 06:27:00,30.8,23.2,30.52,NNW,348,3.0,9.0,73,0.00,,,0.00,0,Wunderground v.1.15,2013-11-13 12:27:00,
2013-11-13 06:32:00,30.8,23.2,30.52,NNE,23,2.0,6.0,73,0.00,,,0.00,5,Wunderground v.1.15,2013-11-13 12:32:00,
2013-11-13 06:38:00,30.7,23.1,30.53,North,5,2.0,7.0,73,0.00,,,0.00,9,Wunderground v.1.15,2013-11-13 12:38:00,
2013-11-13 06:44:00,30.6,23.3,30.53,NE,42,2.0,9.0,74,0.00,,,0.00,11,Wunderground v.1.15,2013-11-13 12:44:00,
2013-11-13 06:49:00,30.6,23.0,30.53,North,5,3.0,13.0,73,0.00,,,0.00,12,Wunderground v.1.15,2013-11-13 12:49:00,
2013-11-13 06:54:00,30.6,23.0,30.53,ENE,77,4.0,7.0,73,0.00,,,0.00,14,Wunderground v.1.15,2013-11-13 12:54:00,
2013-11-13 06:59:00,30.6,23.3,30.53,NE,50,3.0,7.0,74,0.00,,,0.00,18,Wunderground v.1.15,2013-11-13 12:59:00,
2013-11-13 07:04:00,30.7,23.1,30.53,ENE,63,3.0,9.0,73,0.00,,,0.00,19,Wunderground v.1.15,2013-11-13 13:04:00,
2013-11-13 07:09:00,30.7,23.1,30.54,North,5,4.0,9.0,73,0.00,,,0.00,19,Wunderground v.1.15,2013-11-13 13:09:00,
2013-11-13 07:15:00,30.8,23.2,30.54,ENE,61,4.0,11.0,73,0.00,,,0.00,21,Wunderground v.1.15,2013-11-13 13:15:00,
2013-11-13 07:20:00,30.9,22.9,30.54,NNE,27,6.0,8.0,72,0.00,,,0.00,23,Wunderground v.1.15,2013-11-13 13:20:00,
2013-11-13 07:26:00,31.1,23.1,30.53,NE,44,5.0,8.0,72,0.00,,,0.00,25,Wunderground v.1.15,2013-11-13 13:26:00,
2013-11-13 07:31:00,31.3,23.3,30.54,North,358,4.0,8.0,72,0.00,,,0.00,26,Wunderground v.1.15,2013-11-13 13:31:00,
2013-11-13 07:36:00,31.5,23.2,30.53,NE,55,3.0,8.0,71,0.00,,,0.00,163,Wunderground v.1.15,2013-11-13 13:36:00,
2013-11-13 07:41:00,32.0,23.3,30.53,NE,55,3.0,12.0,70,0.00,,,0.00,183,Wunderground v.1.15,2013-11-13 13:41:00,
2013-11-13 07:47:00,32.5,23.1,30.54,North,357,5.0,12.0,68,0.00,,,0.00,202,Wunderground v.1.15,2013-11-13 13:47:00,
2013-11-13 07:53:00,32.8,23.4,30.53,North,356,5.0,9.0,68,0.00,,,0.00,220,Wunderground v.1.15,2013-11-13 13:53:00,
2013-11-13 07:58:00,33.1,23.3,30.54,NE,40,6.0,9.0,67,0.00,,,0.00,236,Wunderground v.1.15,2013-11-13 13:58:00,
2013-11-13 08:03:00,33.4,23.3,30.54,NE,36,6.0,10.0,66,0.00,,,0.00,251,Wunderground v.1.15,2013-11-13 14:03:00,
2013-11-13 08:08:00,33.8,23.6,30.54,North,5,5.0,10.0,66,0.00,,,0.00,267,Wunderground v.1.15,2013-11-13 14:08:00,
2013-11-13 08:14:00,34.1,23.2,30.54,NNE,21,5.0,14.0,64,0.00,,,0.00,285,Wunderground v.1.15,2013-11-13 14:14:00,
2013-11-13 08:19:00,34.4,23.5,30.54,NE,40,7.0,14.0,64,0.00,,,0.00,299,Wunderground v.1.15,2013-11-13 14:19:00,
2013-11-13 08:24:00,34.4,23.1,30.54,North,5,6.0,8.0,63,0.00,,,0.00,315,Wunderground v.1.15,2013-11-13 14:24:00,
2013-11-13 08:30:00,34.8,23.1,30.55,NNE,23,6.0,7.0,62,0.00,,,0.00,334,Wunderground v.1.15,2013-11-13 14:30:00,
2013-11-13 08:35:00,35.2,23.5,30.55,NE,46,6.0,10.0,62,0.00,,,0.00,346,Wunderground v.1.15,2013-11-13 14:35:00,
2013-11-13 08:40:00,35.7,23.9,30.54,North,5,4.0,4.0,62,0.00,,,0.00,362,Wunderground v.1.15,2013-11-13 14:40:00,
2013-11-13 08:45:00,36.2,24.0,30.54,East,85,3.0,6.0,61,0.00,,,0.00,378,Wunderground v.1.15,2013-11-13 14:45:00,
2013-11-13 08:50:00,36.5,23.9,30.54,NNE,21,3.0,3.0,60,0.00,,,0.00,392,Wunderground v.1.15,2013-11-13 14:50:00,
2013-11-13 08:56:00,36.9,23.5,30.54,NNW,332,4.0,9.0,58,0.00,,,0.00,408,Wunderground v.1.15,2013-11-13 14:56:00,
2013-11-13 09:01:00,37.0,23.2,30.54,NNE,21,6.0,15.0,57,0.00,,,0.00,422,Wunderground v.1.15,2013-11-13 15:01:00,
2013-11-13 09:06:00,37.1,23.7,30.54,East,87,6.0,15.0,58,0.00,,,0.00,434,Wunderground v.1.15,2013-11-13 15:06:00,
2013-11-13 09:11:00,37.5,24.1,30.54,North,5,5.0,6.0,58,0.00,,,0.00,446,Wunderground v.1.15,2013-11-13 15:11:00,
2013-11-13 09:16:00,37.8,23.5,30.54,East,95,5.0,12.0,56,0.00,,,0.00,461,Wunderground v.1.15,2013-11-13 15:16:00,
2013-11-13 09:22:00,38.1,23.8,30.55,NNE,15,6.0,14.0,56,0.00,,,0.00,475,Wunderground v.1.15,2013-11-13 15:22:00,
2013-11-13 09:27:00,38.3,24.0,30.55,NNE,19,6.0,14.0,56,0.00,,,0.00,487,Wunderground v.1.15,2013-11-13 15:27:00,
2013-11-13 09:32:00,38.8,24.0,30.55,NE,35,3.0,10.0,55,0.00,,,0.00,499,Wunderground v.1.15,2013-11-13 15:32:00,
2013-11-13 09:37:00,39.1,23.8,30.55,North,352,3.0,10.0,54,0.00,,,0.00,508,Wunderground v.1.15,2013-11-13 15:37:00,
2013-11-13 09:43:00,39.3,24.0,30.55,North,354,5.0,6.0,54,0.00,,,0.00,524,Wunderground v.1.15,2013-11-13 15:43:00,
2013-11-13 09:48:00,39.5,23.8,30.54,NE,34,5.0,8.0,53,0.00,,,0.00,531,Wunderground v.1.15,2013-11-13 15:48:00,
2013-11-13 09:53:00,39.9,23.7,30.54,North,5,4.0,6.0,52,0.00,,,0.00,541,Wunderground v.1.15,2013-11-13 15:53:00,
2013-11-13 09:58:00,40.1,24.3,30.55,ENE,73,4.0,7.0,53,0.00,,,0.00,550,Wunderground v.1.15,2013-11-13 15:58:00,
2013-11-13 10:03:00,40.4,24.6,30.55,ENE,76,4.0,6.0,53,0.00,,,0.00,559,Wunderground v.1.15,2013-11-13 16:03:00,
2013-11-13 10:08:00,40.7,24.9,30.54,North,358,3.0,6.0,53,0.00,,,0.00,568,Wunderground v.1.15,2013-11-13 16:08:00,
2013-11-13 10:14:00,41.1,24.3,30.54,NE,38,2.0,9.0,51,0.00,,,0.00,580,Wunderground v.1.15,2013-11-13 16:14:00,
2013-11-13 10:19:00,41.4,25.1,30.54,NNE,15,3.0,9.0,52,0.00,,,0.00,589,Wunderground v.1.15,2013-11-13 16:19:00,
2013-11-13 10:24:00,41.6,23.8,30.54,NNW,348,4.0,9.0,49,0.00,,,0.00,596,Wunderground v.1.15,2013-11-13 16:24:00,
2013-11-13 10:29:00,42.0,24.7,30.53,NW,325,5.0,9.0,50,0.00,,,0.00,603,Wunderground v.1.15,2013-11-13 16:29:00,
2013-11-13 10:34:00,42.3,24.5,30.53,ENE,74,4.0,7.0,49,0.00,,,0.00,610,Wunderground v.1.15,2013-11-13 16:34:00,
2013-11-13 10:39:00,42.8,24.9,30.52,ENE,71,2.0,7.0,49,0.00,,,0.00,617,Wunderground v.1.15,2013-11-13 16:39:00,
2013-11-13 10:44:00,43.5,25.6,30.52,North,349,1.0,6.0,49,0.00,,,0.00,622,Wunderground v.1.15,2013-11-13 16:44:00,
2013-11-13 10:50:00,43.9,24.4,30.52,NE,41,2.0,7.0,46,0.00,,,0.00,631,Wunderground v.1.15,2013-11-13 16:50:00,
2013-11-13 10:55:00,43.8,24.3,30.52,ENE,59,5.0,12.0,46,0.00,,,0.00,635,Wunderground v.1.15,2013-11-13 16:55:00,
2013-11-13 11:00:00,44.0,24.5,30.52,ESE,123,5.0,5.0,46,0.00,,,0.00,642,Wunderground v.1.15,2013-11-13 17:00:00,
2013-11-13 11:05:00,44.7,25.7,30.51,North,353,2.0,6.0,47,0.00,,,0.00,643,Wunderground v.1.15,2013-11-13 17:05:00,
2013-11-13 11:10:00,45.0,24.9,30.51,North,358,3.0,7.0,45,0.00,,,0.00,649,Wunderground v.1.15,2013-11-13 17:10:00,
2013-11-13 11:16:00,45.1,24.5,30.51,NNW,339,5.0,11.0,44,0.00,,,0.00,654,Wunderground v.1.15,2013-11-13 17:16:00,
2013-11-13 11:21:00,45.6,24.9,30.51,NW,314,4.0,5.0,44,0.00,,,0.00,654,Wunderground v.1.15,2013-11-13 17:21:00,
2013-11-13 11:26:00,45.7,23.9,30.51,North,353,2.0,8.0,42,0.00,,,0.00,656,Wunderground v.1.15,2013-11-13 17:26:00,
2013-11-13 11:32:00,45.9,24.1,30.50,North,10,4.0,7.0,42,0.00,,,0.00,657,Wunderground v.1.15,2013-11-13 17:32:00,
2013-11-13 11:38:00,46.1,24.3,30.50,NE,34,5.0,7.0,42,0.00,,,0.00,659,Wunderground v.1.15,2013-11-13 17:38:00,
2013-11-13 11:43:00,46.6,25.3,30.50,North,352,3.0,6.0,43,0.00,,,0.00,659,Wunderground v.1.15,2013-11-13 17:43:00,
2013-11-13 11:48:00,47.2,24.7,30.50,ENE,64,2.0,9.0,41,0.00,,,0.00,659,Wunderground v.1.15,2013-11-13 17:48:00,
2013-11-13 11:53:00,47.4,24.3,30.49,ENE,63,3.0,8.0,40,0.00,,,0.00,629,Wunderground v.1.15,2013-11-13 17:53:00,
2013-11-13 11:59:00,47.9,25.3,30.49,NE,49,2.0,8.0,41,0.00,,,0.00,661,Wunderground v.1.15,2013-11-13 17:59:00,
2013-11-13 12:04:00,48.0,24.8,30.49,NE,50,2.0,9.0,40,0.00,,,0.00,661,Wunderground v.1.15,2013-11-13 18:04:00,
2013-11-13 12:10:00,47.9,23.5,30.49,SE,127,5.0,5.0,38,0.00,,,0.00,657,Wunderground v.1.15,2013-11-13 18:10:00,
2013-11-13 12:15:00,48.1,22.4,30.48,NNE,15,5.0,9.0,36,0.00,,,0.00,656,Wunderground v.1.15,2013-11-13 18:15:00,
2013-11-13 12:21:00,48.5,24.0,30.48,ENE,68,4.0,6.0,38,0.00,,,0.00,652,Wunderground v.1.15,2013-11-13 18:21:00,
2013-11-13 12:27:00,49.1,24.6,30.47,NNW,334,2.0,6.0,38,0.00,,,0.00,647,Wunderground v.1.15,2013-11-13 18:27:00,
2013-11-13 12:32:00,49.2,24.0,30.47,ENE,67,3.0,8.0,37,0.00,,,0.00,645,Wunderground v.1.15,2013-11-13 18:32:00,
2013-11-13 12:38:00,49.3,24.7,30.47,NE,46,4.0,8.0,38,0.00,,,0.00,640,Wunderground v.1.15,2013-11-13 18:38:00,
2013-11-13 12:43:00,49.6,25.0,30.47,NE,34,3.0,8.0,38,0.00,,,0.00,635,Wunderground v.1.15,2013-11-13 18:43:00,
2013-11-13 12:48:00,49.6,26.2,30.47,NNE,24,4.0,8.0,40,0.00,,,0.00,629,Wunderground v.1.15,2013-11-13 18:48:00,
2013-11-13 12:54:00,50.1,25.5,30.46,NNE,26,2.0,6.0,38,0.00,,,0.00,622,Wunderground v.1.15,2013-11-13 18:54:00,
2013-11-13 13:00:00,50.5,23.8,30.46,NE,48,3.0,6.0,35,0.00,,,0.00,619,Wunderground v.1.15,2013-11-13 19:00:00,
2013-11-13 13:06:00,50.5,25.2,30.46,NNE,15,4.0,12.0,37,0.00,,,0.00,608,Wunderground v.1.15,2013-11-13 19:06:00,
2013-11-13 13:11:00,50.7,24.0,30.46,East,96,3.0,6.0,35,0.00,,,0.00,601,Wunderground v.1.15,2013-11-13 19:11:00,
2013-11-13 13:16:00,51.0,25.6,30.46,North,5,2.0,6.0,37,0.00,,,0.00,592,Wunderground v.1.15,2013-11-13 19:16:00,
2013-11-13 13:21:00,51.3,26.5,30.46,ENE,60,1.0,6.0,38,0.00,,,0.00,582,Wunderground v.1.15,2013-11-13 19:21:00,
2013-11-13 13:27:00,51.6,26.1,30.45,NNW,336,2.0,6.0,37,0.00,,,0.00,575,Wunderground v.1.15,2013-11-13 19:27:00,
2013-11-13 13:33:00,51.3,25.2,30.45,North,353,4.0,8.0,36,0.00,,,0.00,564,Wunderground v.1.15,2013-11-13 19:33:00,
2013-11-13 13:38:00,51.4,25.3,30.45,NE,39,5.0,8.0,36,0.00,,,0.00,555,Wunderground v.1.15,2013-11-13 19:38:00,
2013-11-13 13:43:00,51.8,25.7,30.45,ENE,66,2.0,8.0,36,0.00,,,0.00,547,Wunderground v.1.15,2013-11-13 19:43:00,
2013-11-13 13:49:00,51.8,24.3,30.45,ENE,65,2.0,8.0,34,0.00,,,0.00,534,Wunderground v.1.15,2013-11-13 19:49:00,
2013-11-13 13:55:00,51.8,25.0,30.44,NE,44,3.0,11.0,35,0.00,,,0.00,524,Wunderground v.1.15,2013-11-13 19:55:00,
2013-11-13 14:00:00,52.1,25.3,30.44,NNW,328,3.0,6.0,35,0.00,,,0.00,513,Wunderground v.1.15,2013-11-13 20:00:00,
2013-11-13 14:05:00,52.0,25.2,30.44,ENE,64,3.0,11.0,35,0.00,,,0.00,501,Wunderground v.1.15,2013-11-13 20:05:00,
2013-11-13 14:10:00,51.9,24.4,30.44,NNE,31,4.0,6.0,34,0.00,,,0.00,490,Wunderground v.1.15,2013-11-13 20:10:00,
2013-11-13 14:16:00,52.3,25.4,30.44,NE,56,3.0,6.0,35,0.00,,,0.00,475,Wunderground v.1.15,2013-11-13 20:16:00,
2013-11-13 14:21:00,52.2,24.6,30.43,NE,35,3.0,6.0,34,0.00,,,0.00,464,Wunderground v.1.15,2013-11-13 20:21:00,
2013-11-13 14:26:00,52.3,24.7,30.43,NW,319,3.0,6.0,34,0.00,,,0.00,452,Wunderground v.1.15,2013-11-13 20:26:00,
2013-11-13 14:31:00,52.5,26.9,30.43,ENE,68,2.0,8.0,37,0.00,,,0.00,431,Wunderground v.1.15,2013-11-13 20:31:00,
2013-11-13 14:37:00,52.7,25.8,30.43,ENE,70,1.0,8.0,35,0.00,,,0.00,425,Wunderground v.1.15,2013-11-13 20:37:00,
2013-11-13 14:45:00,52.4,24.8,30.43,North,1,4.0,7.0,34,0.00,,,0.00,401,Wunderground v.1.15,2013-11-13 20:45:00,
2013-11-13 14:50:00,52.3,24.7,30.43,NE,42,3.0,8.0,34,0.00,,,0.00,390,Wunderground v.1.15,2013-11-13 20:50:00,
2013-11-13 14:55:00,52.2,25.3,30.43,NNE,28,3.0,8.0,35,0.00,,,0.00,373,Wunderground v.1.15,2013-11-13 20:55:00,
2013-11-13 15:01:00,52.2,25.3,30.43,North,360,3.0,6.0,35,0.00,,,0.00,357,Wunderground v.1.15,2013-11-13 21:01:00,
2013-11-13 15:06:00,52.3,26.1,30.43,ESE,103,2.0,6.0,36,0.00,,,0.00,323,Wunderground v.1.15,2013-11-13 21:06:00,
2013-11-13 15:12:00,52.2,25.3,30.43,North,10,3.0,6.0,35,0.00,,,0.00,288,Wunderground v.1.15,2013-11-13 21:12:00,
2013-11-13 15:18:00,52.2,25.3,30.43,ENE,70,3.0,6.0,35,0.00,,,0.00,255,Wunderground v.1.15,2013-11-13 21:18:00,
2013-11-13 15:23:00,52.2,25.3,30.43,ENE,77,2.0,6.0,35,0.00,,,0.00,292,Wunderground v.1.15,2013-11-13 21:23:00,
2013-11-13 15:28:00,52.2,25.3,30.43,North,10,2.0,6.0,35,0.00,,,0.00,264,Wunderground v.1.15,2013-11-13 21:28:00,
2013-11-13 15:33:00,52.2,26.0,30.43,NE,56,3.0,6.0,36,0.00,,,0.00,264,Wunderground v.1.15,2013-11-13 21:33:00,
2013-11-13 15:48:00,52.2,26.7,30.43,NE,48,1.0,6.0,37,0.00,,,0.00,213,Wunderground v.1.15,2013-11-13 21:48:00,
2013-11-13 15:53:00,52.1,26.6,30.44,NE,41,2.0,6.0,37,0.00,,,0.00,190,Wunderground v.1.15,2013-11-13 21:53:00,
2013-11-13 15:58:00,52.3,28.1,30.43,NE,41,1.0,6.0,39,0.00,,,0.00,169,Wunderground v.1.15,2013-11-13 21:58:00,
2013-11-13 16:04:00,52.4,27.5,30.44,NE,35,1.0,6.0,38,0.00,,,0.00,148,Wunderground v.1.15,2013-11-13 22:04:00,
2013-11-13 16:10:00,52.1,26.6,30.43,NNW,329,2.0,2.0,37,0.00,,,0.00,121,Wunderground v.1.15,2013-11-13 22:10:00,
2013-11-13 16:15:00,51.9,27.7,30.43,NNW,329,1.0,6.0,39,0.00,,,0.00,30,Wunderground v.1.15,2013-11-13 22:15:00,
2013-11-13 16:20:00,51.4,27.2,30.43,ENE,58,0.0,6.0,39,0.00,,,0.00,28,Wunderground v.1.15,2013-11-13 22:20:00,
2013-11-13 16:25:00,51.0,27.5,30.43,NE,41,1.0,6.0,40,0.00,,,0.00,26,Wunderground v.1.15,2013-11-13 22:25:00,
2013-11-13 16:31:00,50.6,26.5,30.43,NE,34,1.0,6.0,39,0.00,,,0.00,26,Wunderground v.1.15,2013-11-13 22:31:00,
2013-11-13 16:36:00,50.4,27.6,30.43,NE,56,1.0,6.0,41,0.00,,,0.00,26,Wunderground v.1.15,2013-11-13 22:36:00,
2013-11-13 16:41:00,50.1,27.9,30.42,NE,56,0.0,6.0,42,0.00,,,0.00,18,Wunderground v.1.15,2013-11-13 22:41:00,
2013-11-13 16:46:00,49.8,28.2,30.42,NE,56,0.0,6.0,43,0.00,,,0.00,14,Wunderground v.1.15,2013-11-13 22:46:00,
2013-11-13 16:52:00,49.4,29.5,30.42,NE,54,0.0,6.0,46,0.00,,,0.00,12,Wunderground v.1.15,2013-11-13 22:52:00,
2013-11-13 16:58:00,48.8,28.9,30.42,NE,55,0.0,6.0,46,0.00,,,0.00,7,Wunderground v.1.15,2013-11-13 22:58:00,
2013-11-13 17:03:00,48.3,30.0,30.42,NE,54,0.0,6.0,49,0.00,,,0.00,0,Wunderground v.1.15,2013-11-13 23:03:00,
2013-11-13 17:08:00,47.8,30.0,30.42,NE,55,0.0,6.0,50,0.00,,,0.00,0,Wunderground v.1.15,2013-11-13 23:08:00,
2013-11-13 17:14:00,47.3,30.5,30.42,NE,55,0.0,6.0,52,0.00,,,0.00,0,Wunderground v.1.15,2013-11-13 23:14:00,
2013-11-13 17:19:00,46.7,30.9,30.42,NE,54,0.0,6.0,54,0.00,,,0.00,0,Wunderground v.1.15,2013-11-13 23:19:00,
2013-11-13 17:24:00,46.2,31.4,30.42,NE,54,0.0,6.0,56,0.00,,,0.00,0,Wunderground v.1.15,2013-11-13 23:24:00,
2013-11-13 17:29:00,45.6,30.8,30.42,NE,54,0.0,6.0,56,0.00,,,0.00,0,Wunderground v.1.15,2013-11-13 23:29:00,
2013-11-13 17:35:00,45.0,31.5,30.42,NE,54,0.0,6.0,59,0.00,,,0.00,0,Wunderground v.1.15,2013-11-13 23:35:00,
2013-11-13 17:48:00,43.7,31.5,30.42,NE,54,0.0,6.0,62,0.00,,,0.00,0,Wunderground v.1.15,2013-11-13 23:48:00,
2013-11-13 17:54:00,43.2,30.6,30.43,NE,54,0.0,6.0,61,0.00,,,0.00,0,Wunderground v.1.15,2013-11-13 23:54:00,
2013-11-13 17:59:00,42.9,30.4,30.43,NE,54,0.0,6.0,61,0.00,,,0.00,0,Wunderground v.1.15,2013-11-13 23:59:00,
2013-11-13 18:04:00,42.6,30.5,30.43,NE,54,0.0,6.0,62,0.00,,,0.00,0,Wunderground v.1.15,2013-11-14 00:04:00,
2013-11-13 18:09:00,42.4,30.3,30.43,NE,54,0.0,6.0,62,0.00,,,0.00,0,Wunderground v.1.15,2013-11-14 00:09:00,
2013-11-13 18:15:00,42.0,30.3,30.43,NE,54,0.0,6.0,63,0.00,,,0.00,0,Wunderground v.1.15,2013-11-14 00:15:00,
2013-11-13 18:20:00,41.7,30.0,30.43,NE,54,0.0,6.0,63,0.00,,,0.00,0,Wunderground v.1.15,2013-11-14 00:20:00,
2013-11-13 18:26:00,41.5,30.2,30.43,NE,54,0.0,6.0,64,0.00,,,0.00,0,Wunderground v.1.15,2013-11-14 00:26:00,
2013-11-13 18:31:00,41.3,29.6,30.43,NE,54,0.0,6.0,63,0.00,,,0.00,0,Wunderground v.1.15,2013-11-14 00:31:00,
2013-11-13 18:36:00,41.1,29.8,30.43,NE,54,0.0,6.0,64,0.00,,,0.00,0,Wunderground v.1.15,2013-11-14 00:36:00,
2013-11-13 18:48:00,40.5,29.7,30.43,NE,54,0.0,6.0,65,0.00,,,0.00,0,Wunderground v.1.15,2013-11-14 00:48:00,
2013-11-13 18:58:00,40.0,29.6,30.43,NE,54,0.0,6.0,66,0.00,,,0.00,0,Wunderground v.1.15,2013-11-14 00:58:00,
2013-11-13 19:03:00,39.8,29.7,30.44,NE,55,0.0,6.0,67,0.00,,,0.00,0,Wunderground v.1.15,2013-11-14 01:03:00,
2013-11-13 19:08:00,39.7,29.3,30.44,NE,54,0.0,6.0,66,0.00,,,0.00,0,Wunderground v.1.15,2013-11-14 01:08:00,
2013-11-13 19:14:00,40.0,29.2,30.44,NE,54,0.0,6.0,65,0.00,,,0.00,0,Wunderground v.1.15,2013-11-14 01:14:00,
2013-11-13 19:19:00,40.3,29.1,30.44,NE,54,0.0,6.0,64,0.00,,,0.00,0,Wunderground v.1.15,2013-11-14 01:19:00,
2013-11-13 19:24:00,40.6,29.0,30.44,NE,54,0.0,6.0,63,0.00,,,0.00,0,Wunderground v.1.15,2013-11-14 01:24:00,
2013-11-13 19:30:00,40.8,29.2,30.45,NE,55,0.0,6.0,63,0.00,,,0.00,0,Wunderground v.1.15,2013-11-14 01:30:00,
2013-11-13 19:35:00,40.8,28.8,30.45,NE,54,0.0,6.0,62,0.00,,,0.00,0,Wunderground v.1.15,2013-11-14 01:35:00,
2013-11-13 19:48:00,40.4,29.2,30.45,NE,54,0.0,6.0,64,0.00,,,0.00,0,Wunderground v.1.15,2013-11-14 01:48:00,
2013-11-13 19:53:00,40.1,30.0,30.45,NE,54,0.0,6.0,67,0.00,,,0.00,0,Wunderground v.1.15,2013-11-14 01:53:00,
2013-11-13 19:59:00,39.7,29.6,30.45,NE,54,0.0,6.0,67,0.00,,,0.00,0,Wunderground v.1.15,2013-11-14 01:59:00,
2013-11-13 20:04:00,39.5,29.4,30.45,NE,54,0.0,6.0,67,0.00,,,0.00,0,Wunderground v.1.15,2013-11-14 02:04:00,
2013-11-13 20:09:00,39.4,29.0,30.45,NE,54,0.0,6.0,66,0.00,,,0.00,0,Wunderground v.1.15,2013-11-14 02:09:00,
2013-11-13 20:15:00,39.6,29.2,30.45,NE,55,0.0,6.0,66,0.00,,,0.00,0,Wunderground v.1.15,2013-11-14 02:15:00,
2013-11-13 20:21:00,40.0,29.2,30.44,NE,54,0.0,6.0,65,0.00,,,0.00,0,Wunderground v.1.15,2013-11-14 02:21:00,
2013-11-13 20:26:00,40.2,29.4,30.44,NE,54,0.0,6.0,65,0.00,,,0.00,0,Wunderground v.1.15,2013-11-14 02:26:00,
2013-11-13 20:31:00,40.2,29.4,30.44,NE,54,0.0,6.0,65,0.00,,,0.00,0,Wunderground v.1.15,2013-11-14 02:31:00,
2013-11-13 20:37:00,40.2,29.4,30.44,NE,54,0.0,6.0,65,0.00,,,0.00,0,Wunderground v.1.15,2013-11-14 02:37:00,
2013-11-13 20:48:00,40.1,29.6,30.44,NE,54,0.0,6.0,66,0.00,,,0.00,0,Wunderground v.1.15,2013-11-14 02:48:00,
2013-11-13 20:54:00,40.0,29.6,30.44,NE,54,0.0,6.0,66,0.00,,,0.00,0,Wunderground v.1.15,2013-11-14 02:54:00,
2013-11-13 21:00:00,39.8,29.7,30.44,NE,52,0.0,6.0,67,0.00,,,0.00,0,Wunderground v.1.15,2013-11-14 03:00:00,
2013-11-13 21:05:00,39.6,29.5,30.44,NE,52,0.0,6.0,67,0.00,,,0.00,0,Wunderground v.1.15,2013-11-14 03:05:00,
2013-11-13 21:10:00,39.5,29.4,30.44,NE,52,0.0,6.0,67,0.00,,,0.00,0,Wunderground v.1.15,2013-11-14 03:10:00,
2013-11-13 21:16:00,39.3,29.3,30.44,NE,52,0.0,6.0,67,0.00,,,0.00,0,Wunderground v.1.15,2013-11-14 03:16:00,
2013-11-13 21:21:00,39.2,29.5,30.44,NE,52,0.0,6.0,68,0.00,,,0.00,0,Wunderground v.1.15,2013-11-14 03:21:00,
2013-11-13 21:26:00,39.0,29.3,30.44,NE,52,0.0,6.0,68,0.00,,,0.00,0,Wunderground v.1.15,2013-11-14 03:26:00,
2013-11-13 21:31:00,38.9,29.2,30.44,NE,52,0.0,6.0,68,0.00,,,0.00,0,Wunderground v.1.15,2013-11-14 03:31:00,
2013-11-13 21:37:00,38.7,29.0,30.44,NE,52,0.0,6.0,68,0.00,,,0.00,0,Wunderground v.1.15,2013-11-14 03:37:00,
2013-11-13 21:48:00,38.3,28.7,30.43,NE,52,0.0,6.0,68,0.00,,,0.00,0,Wunderground v.1.15,2013-11-14 03:48:00,
2013-11-13 21:56:00,37.8,28.9,30.44,NE,52,0.0,6.0,70,0.00,,,0.00,0,Wunderground v.1.15,2013-11-14 03:56:00,
2013-11-13 22:01:00,37.7,28.8,30.44,NE,52,0.0,6.0,70,0.00,,,0.00,0,Wunderground v.1.15,2013-11-14 04:01:00,
2013-11-13 22:06:00,37.5,28.9,30.44,NE,52,0.0,6.0,71,0.00,,,0.00,0,Wunderground v.1.15,2013-11-14 04:06:00,
2013-11-13 22:12:00,37.4,28.9,30.44,NE,52,0.0,6.0,71,0.00,,,0.00,0,Wunderground v.1.15,2013-11-14 04:12:00,
2013-11-13 22:17:00,37.2,28.7,30.44,NE,52,0.0,6.0,71,0.00,,,0.00,0,Wunderground v.1.15,2013-11-14 04:17:00,
2013-11-13 22:23:00,36.9,28.4,30.43,NE,52,0.0,6.0,71,0.00,,,0.00,0,Wunderground v.1.15,2013-11-14 04:23:00,
2013-11-13 22:28:00,36.7,28.9,30.43,NE,52,0.0,6.0,73,0.00,,,0.00,0,Wunderground v.1.15,2013-11-14 04:28:00,
2013-11-13 22:33:00,36.4,28.6,30.43,NE,52,0.0,6.0,73,0.00,,,0.00,0,Wunderground v.1.15,2013-11-14 04:33:00,
2013-11-13 22:48:00,35.7,28.2,30.42,NE,52,0.0,6.0,74,0.00,,,0.00,0,Wunderground v.1.15,2013-11-14 04:48:00,
2013-11-13 22:58:00,35.5,28.0,30.42,NE,52,0.0,6.0,74,0.00,,,0.00,0,Wunderground v.1.15,2013-11-14 04:58:00,
2013-11-13 23:01:00,35.4,27.6,30.42,NE,52,0.0,6.0,73,0.00,,,0.00,0,Wunderground v.1.15,2013-11-14 05:01:00,
2013-11-13 23:02:00,35.4,27.6,30.42,NE,52,0.0,6.0,73,0.00,,,0.00,0,Wunderground v.1.15,2013-11-14 05:02:00,
2013-11-13 23:03:00,35.4,27.6,30.42,NE,52,0.0,6.0,73,0.00,,,0.00,0,Wunderground v.1.15,2013-11-14 05:03:00,
2013-11-13 23:08:00,35.3,27.8,30.42,NE,52,0.0,6.0,74,0.00,,,0.00,0,Wunderground v.1.15,2013-11-14 05:08:00,
2013-11-13 23:09:00,35.3,27.8,30.42,NE,52,0.0,6.0,74,0.00,,,0.00,0,Wunderground v.1.15,2013-11-14 05:09:00,
2013-11-13 23:14:00,35.2,27.7,30.42,NE,52,0.0,6.0,74,0.00,,,0.00,0,Wunderground v.1.15,2013-11-14 05:14:00,
2013-11-13 23:20:00,35.1,27.6,30.42,NE,52,0.0,6.0,74,0.00,,,0.00,0,Wunderground v.1.15,2013-11-14 05:20:00,
2013-11-13 23:23:00,35.0,27.5,30.42,NE,52,0.0,6.0,74,0.00,,,0.00,0,Wunderground v.1.15,2013-11-14 05:23:00,
2013-11-13 23:28:00,35.0,27.5,30.42,NE,52,0.0,6.0,74,0.00,,,0.00,0,Wunderground v.1.15,2013-11-14 05:28:00,
2013-11-13 23:34:00,34.8,27.4,30.42,NE,52,0.0,6.0,74,0.00,,,0.00,0,Wunderground v.1.15,2013-11-14 05:34:00,
2013-11-13 23:48:00,34.4,27.6,30.42,NE,52,0.0,6.0,76,0.00,,,0.00,0,Wunderground v.1.15,2013-11-14 05:48:00,
2013-11-13 23:53:00,34.4,28.2,30.42,NE,52,0.0,6.0,78,0.00,,,0.00,0,Wunderground v.1.15,2013-11-14 05:53:00,
2013-11-13 23:58:00,34.2,28.4,30.41,NE,52,0.0,6.0,79,0.00,,,0.00,0,Wunderground v.1.15,2013-11-14 05:58:00,